Kokomo, IN

9:22 AM EDT on October 18, 2017 (GMT -0400)
Kokomo Municipal

Weather History for KOKK - May, 2014

Change the Weather History Date:

Monday, May 26, 2014

  Actual Average (KGUS) Record (KGUS)
Temperature  
Mean Temperature 73 °F -  
Max Temperature 89 °F 70 °F 91 °F (2012)
Min Temperature 57 °F 54 °F 44 °F (2002)
Cooling Degree Days 8    
Growing Degree Days 23 (Base 50)    
Moisture  
Dew Point 61 °F    
Average Humidity 51    
Maximum Humidity 88    
Minimum Humidity 38    
Precipitation  
Precipitation 0.00 in - - ()
Sea Level Pressure  
Sea Level Pressure 30.02 in    
Wind  
Wind Speed 9 mph (SW)    
Max Wind Speed 17 mph    
Max Gust Speed 21 mph    
Visibility 10 miles    
Events      
Averages and records for this station are not official NWS values.
T = Trace of Precipitation, MM = Missing Value Source: NWS Daily Summary

Daily Weather History Graph

Daily Weather History Graph

Search for Another Location

Airport or City:

Trip Planner

Search our weather history database for the weather conditions in past years. The results will help you decide how hot, cold, wet, or windy it might be!

Date:

Astronomy

May. 26, 2014 Rise Set
Actual Time 5:19 AM CDT 8:04 PM CDT
Civil Twilight 4:47 AM CDT 8:36 PM CDT
Nautical Twilight 4:06 AM CDT 9:16 PM CDT
Astronomical Twilight 3:21 AM CDT 10:02 PM CDT
Moon 4:01 AM CDT (5/26) 6:05 PM CDT (5/26)
Length of Visible Light 15h 49m
Length of Day
14h 45m
Waning Crescent, 5% of the Moon is Illuminated
May 26
Waning Crescent
May 28
New
Jun 5
First Quarter
Jun 12
Full
Jun 19
Last Quarter

Hourly Weather History & Observations

Time (CDT) Temp. Heat Index Dew Point Humidity Pressure Visibility Wind Dir Wind Speed Gust Speed Precip Events Conditions
12:15 AM - - - N/A% - - North - - N/A   Unknown
12:35 AM - - - N/A% - - North - - N/A   Unknown
12:55 AM - - - N/A% - - North - - N/A   Unknown
1:15 AM - - - N/A% - - North - - N/A   Unknown
1:35 AM - - - N/A% - - North - - N/A   Unknown
1:55 AM - - - N/A% - - North - - N/A   Unknown
2:15 AM - - - N/A% - - North - - N/A   Unknown
2:35 AM - - - N/A% - - North - - N/A   Unknown
2:55 AM - - - N/A% - - North - - N/A   Unknown
3:15 AM - - - N/A% - - North - - N/A   Unknown
3:35 AM - - - N/A% - - North - - N/A   Unknown
3:55 AM - - - N/A% - - North - - N/A   Unknown
4:15 AM - - - N/A% - - North - - N/A   Unknown
4:35 AM 57.2 °F - 53.6 °F 88% 30.10 in 10.0 mi South 4.6 mph - N/A   Unknown
4:55 AM - - - N/A% - - North - - N/A   Unknown
5:15 AM - - - N/A% - - North - - N/A   Unknown
5:35 AM - - - N/A% - - North - - N/A   Unknown
5:55 AM - - - N/A% - - North - - N/A   Unknown
6:15 AM - - - N/A% - - North - - N/A   Unknown
6:35 AM - - - N/A% - - North - - N/A   Unknown
6:55 AM - - - N/A% - - North - - N/A   Unknown
7:15 AM - - - N/A% - - North - - N/A   Unknown
7:35 AM - - - N/A% - - North - - N/A   Unknown
7:55 AM - - - N/A% - - North - - N/A   Unknown
8:15 AM - - - N/A% - - North - - N/A   Unknown
8:35 AM - - - N/A% - - North - - N/A   Unknown
8:55 AM - - - N/A% - - North - - N/A   Unknown
9:15 AM - - - N/A% - - North - - N/A   Unknown
9:35 AM - - - N/A% - - North - - N/A   Unknown
10:15 AM - - - N/A% - - North - - N/A   Unknown
10:35 AM 78.8 °F - 60.8 °F 54% 30.09 in 10.0 mi SSW 6.9 mph - N/A   Unknown
10:55 AM 80.6 °F 81.5 °F 60.8 °F 51% 30.09 in 10.0 mi South 8.1 mph - N/A   Clear
11:15 AM 80.6 °F 81.8 °F 62.6 °F 54% 30.08 in 10.0 mi Calm Calm - N/A   Clear
11:35 AM 82.4 °F 83.4 °F 62.6 °F 51% 30.07 in 10.0 mi SW 8.1 mph - N/A   Clear
11:55 AM 84.2 °F 85.0 °F 62.6 °F 48% 30.07 in 10.0 mi West 8.1 mph - N/A   Clear
12:15 PM 84.2 °F 85.0 °F 62.6 °F 48% 30.07 in 10.0 mi WSW 13.8 mph - N/A   Clear
12:35 PM 84.2 °F 85.0 °F 62.6 °F 48% 30.06 in 10.0 mi West 12.7 mph 17.3 mph N/A   Partly Cloudy
12:55 PM 86.0 °F 86.6 °F 62.6 °F 45% 30.06 in 10.0 mi SW 12.7 mph - N/A   Scattered Clouds
1:15 PM 87.8 °F 88.5 °F 62.6 °F 43% 30.05 in 10.0 mi West 12.7 mph 17.3 mph N/A   Scattered Clouds
1:35 PM 87.8 °F 88.5 °F 62.6 °F 43% 30.04 in 10.0 mi WSW 11.5 mph 16.1 mph N/A   Scattered Clouds
1:55 PM 87.8 °F 88.5 °F 62.6 °F 43% 30.04 in 10.0 mi WSW 11.5 mph 19.6 mph N/A   Partly Cloudy
2:35 PM 89.6 °F 90.1 °F 62.6 °F 40% 30.02 in 10.0 mi WSW 9.2 mph - N/A   Partly Cloudy
2:55 PM 87.8 °F 87.6 °F 60.8 °F 40% 30.01 in 10.0 mi WSW 12.7 mph - N/A   Scattered Clouds
3:15 PM 89.6 °F 89.5 °F 60.8 °F 38% 30.00 in 10.0 mi SW 10.4 mph 16.1 mph N/A   Partly Cloudy
3:35 PM 89.6 °F 89.5 °F 60.8 °F 38% 29.99 in 10.0 mi West 8.1 mph - N/A   Clear
3:55 PM 87.8 °F 87.6 °F 60.8 °F 40% 29.99 in 10.0 mi WSW 11.5 mph - N/A   Partly Cloudy
4:15 PM 87.8 °F 87.6 °F 60.8 °F 40% 29.99 in 10.0 mi SW 13.8 mph 20.7 mph N/A   Clear
4:35 PM 87.8 °F 87.6 °F 60.8 °F 40% 29.99 in 10.0 mi WSW 12.7 mph - N/A   Partly Cloudy
4:55 PM 87.8 °F 87.6 °F 60.8 °F 40% 29.98 in 10.0 mi SW 13.8 mph - N/A   Partly Cloudy
5:15 PM 86.0 °F 86.1 °F 60.8 °F 43% 29.98 in 10.0 mi WSW 17.3 mph - N/A   Scattered Clouds
5:35 PM 86.0 °F 86.1 °F 60.8 °F 43% 29.97 in 10.0 mi WSW 15.0 mph - N/A   Partly Cloudy
5:55 PM 84.2 °F 84.4 °F 60.8 °F 45% 29.97 in 10.0 mi SW 13.8 mph - N/A   Clear
6:15 PM 84.2 °F 84.4 °F 60.8 °F 45% 29.96 in 10.0 mi SW 10.4 mph - N/A   Clear
6:35 PM 84.2 °F 84.4 °F 60.8 °F 45% 29.97 in 10.0 mi SW 12.7 mph - N/A   Clear
6:55 PM 82.4 °F 82.9 °F 60.8 °F 48% 29.98 in 10.0 mi WSW 12.7 mph - N/A   Clear
7:15 PM 82.4 °F 82.9 °F 60.8 °F 48% 29.98 in 10.0 mi WSW 12.7 mph - N/A   Clear
7:35 PM 82.4 °F 82.9 °F 60.8 °F 48% 29.98 in 10.0 mi SW 12.7 mph - N/A   Clear
7:55 PM 80.6 °F 81.5 °F 60.8 °F 51% 29.99 in 10.0 mi SW 9.2 mph - N/A   Clear
8:15 PM 78.8 °F - 60.8 °F 54% 29.99 in 10.0 mi SW 9.2 mph - N/A   Clear
8:35 PM 78.8 °F - 60.8 °F 54% 29.99 in 10.0 mi SSW 9.2 mph - N/A   Clear
8:55 PM 77.0 °F - 60.8 °F 57% 29.99 in 10.0 mi SSW 8.1 mph - N/A   Clear
9:15 PM 78.8 °F - 60.8 °F 54% 30.00 in 10.0 mi SW 9.2 mph - N/A   Clear
9:35 PM 77.0 °F - 60.8 °F 57% 30.01 in 10.0 mi SSW 6.9 mph - N/A   Clear
9:55 PM 75.2 °F - 62.6 °F 65% 30.02 in 10.0 mi SSW 8.1 mph - N/A   Clear
10:15 PM 75.2 °F - 62.6 °F 65% 30.02 in 10.0 mi SSW 6.9 mph - N/A   Partly Cloudy
10:35 PM 75.2 °F - 62.6 °F 65% 30.02 in 10.0 mi SW 6.9 mph - N/A   Partly Cloudy
10:55 PM 75.2 °F - 62.6 °F 65% 30.01 in 10.0 mi SW 9.2 mph - N/A   Scattered Clouds
11:15 PM 75.2 °F - 62.6 °F 65% 30.02 in 10.0 mi NNW 8.1 mph - N/A   Mostly Cloudy
11:35 PM 71.6 °F - 62.6 °F 73% 30.02 in 10.0 mi NNW 8.1 mph - N/A   Scattered Clouds
11:55 PM 71.6 °F - 62.6 °F 73% 30.02 in 10.0 mi NNW 3.5 mph - N/A   Partly Cloudy